When you browse on this site, cookies collect data to enhance your experience and personalize the content and advertising you see.
Visit our Privacy Policy to learn more. By continuing to use the site, you agree to this use of cookies and data.
  • en Suisse
  • Liste des pays
  • À 7 jours
  • Température de l'eau
  • Carte météo
  • Widgets météo
  • user-avatar
    Se connecter

    Météo par heure à Maracay

    Ce jour, 21 Octobre, Lundi

    Heure Température Précipitation Vent Pression Humidité
    00:00 +24°C° 0 mm 1 m/s 711 mmHg 90%
    01:00 +21°C° 0 mm 0 m/s 710 mmHg 90%
    02:00 +21°C° 0.1 mm 0 m/s 710 mmHg 90%
    03:00 +21°C° 0.1 mm 0 m/s 710 mmHg 90%
    04:00 +21°C° 0.1 mm 0 m/s 710 mmHg 90%
    05:00 +22°C° 0 mm 0 m/s 710 mmHg 88%
    06:00 +23°C° 0 mm 0 m/s 711 mmHg 86%
    07:00 +24°C° 0 mm 0 m/s 712 mmHg 85%
    08:00 +25°C° 0.1 mm 0 m/s 712 mmHg 78%
    09:00 +29°C° 0.1 mm 1 m/s 712 mmHg 71%
    10:00 +31°C° 0.1 mm 1 m/s 712 mmHg 65%
    11:00 +30°C° 0.5 mm 1 m/s 711 mmHg 67%
    12:00 +30°C° 0.5 mm 1 m/s 711 mmHg 69%
    13:00 +30°C° 0.5 mm 1 m/s 710 mmHg 71%
    14:00 +29°C° 1 mm 1 m/s 709 mmHg 75%
    15:00 +28°C° 1 mm 2 m/s 709 mmHg 80%
    16:00 +27°C° 1 mm 2 m/s 709 mmHg 84%
    17:00 +26°C° 0.2 mm 2 m/s 709 mmHg 87%
    18:00 +25°C° 0.2 mm 2 m/s 710 mmHg 89%
    19:00 +24°C° 0.2 mm 2 m/s 710 mmHg 92%
    20:00 +24°C° 0 mm 1 m/s 710 mmHg 92%
    21:00 +24°C° 0 mm 1 m/s 710 mmHg 93%
    22:00 +24°C° 0 mm 1 m/s 711 mmHg 93%
    23:00 +23°C° 0 mm 1 m/s 710 mmHg 93%

    Demain, 22 Octobre, Mardi

    Heure Température Précipitation Vent Pression Humidité
    00:00 +23°C° 0 mm 1 m/s 710 mmHg 92%
    01:00 +23°C° 0 mm 1 m/s 709 mmHg 92%
    02:00 +23°C° 0 mm 1 m/s 709 mmHg 92%
    03:00 +23°C° 0 mm 1 m/s 709 mmHg 91%
    04:00 +23°C° 0 mm 1 m/s 709 mmHg 91%
    05:00 +23°C° 0 mm 1 m/s 710 mmHg 89%
    06:00 +22°C° 0 mm 0 m/s 710 mmHg 87%
    07:00 +23°C° 0 mm 0 m/s 711 mmHg 86%
    08:00 +27°C° 0 mm 1 m/s 711 mmHg 77%
    09:00 +28°C° 0 mm 1 m/s 711 mmHg 68%
    10:00 +30°C° 0 mm 1 m/s 712 mmHg 60%
    11:00 +30°C° 0.1 mm 1 m/s 711 mmHg 58%
    12:00 +30°C° 0.1 mm 1 m/s 710 mmHg 57%
    13:00 +31°C° 0.1 mm 1 m/s 709 mmHg 56%
    14:00 +30°C° 0 mm 1 m/s 709 mmHg 61%
    15:00 +29°C° 0 mm 1 m/s 709 mmHg 66%
    16:00 +28°C° 0 mm 2 m/s 708 mmHg 71%
    17:00 +27°C° 0 mm 1 m/s 709 mmHg 76%
    18:00 +25°C° 0 mm 1 m/s 709 mmHg 80%
    19:00 +24°C° 0 mm 1 m/s 709 mmHg 85%
    20:00 +23°C° 0 mm 1 m/s 709 mmHg 85%
    21:00 +23°C° 0 mm 1 m/s 709 mmHg 85%
    22:00 +23°C° 0 mm 1 m/s 710 mmHg 85%
    23:00 +23°C° 0 mm 1 m/s 709 mmHg 86%

    Après-demain, 23 Octobre, Mercredi

    Heure Température Précipitation Vent Pression Humidité
    00:00 +22°C° 0 mm 1 m/s 709 mmHg 86%
    01:00 +22°C° 0 mm 1 m/s 708 mmHg 86%
    02:00 +22°C° 0 mm 1 m/s 708 mmHg 87%
    03:00 +20°C° 0 mm 0 m/s 708 mmHg 87%
    04:00 +20°C° 0 mm 0 m/s 708 mmHg 88%
    05:00 +21°C° 0 mm 0 m/s 709 mmHg 85%
    06:00 +22°C° 0 mm 0 m/s 710 mmHg 82%
    07:00 +23°C° 0 mm 0 m/s 710 mmHg 79%
    08:00 +24°C° 0 mm 0 m/s 710 mmHg 74%
    09:00 +28°C° 0 mm 1 m/s 711 mmHg 68%
    10:00 +29°C° 0 mm 1 m/s 711 mmHg 63%
    11:00 +29°C° 0.2 mm 1 m/s 710 mmHg 62%
    12:00 +30°C° 0.2 mm 1 m/s 710 mmHg 61%
    13:00 +30°C° 0.2 mm 1 m/s 709 mmHg 60%
    14:00 +29°C° 0.2 mm 1 m/s 709 mmHg 65%
    15:00 +29°C° 0.2 mm 1 m/s 708 mmHg 70%
    16:00 +28°C° 0.2 mm 1 m/s 708 mmHg 75%
    17:00 +27°C° 0.1 mm 1 m/s 708 mmHg 79%
    18:00 +25°C° 0.1 mm 1 m/s 709 mmHg 83%
    19:00 +24°C° 0.1 mm 1 m/s 709 mmHg 87%
    20:00 +24°C° 0.1 mm 1 m/s 709 mmHg 87%
    21:00 +23°C° 0.1 mm 1 m/s 709 mmHg 88%
    22:00 +23°C° 0.1 mm 1 m/s 710 mmHg 88%
    23:00 +23°C° 0 mm 1 m/s 709 mmHg 88%

    24 Octobre, Jeudi

    Heure Température Précipitation Vent Pression Humidité
    00:00 +23°C° 0 mm 1 m/s 709 mmHg 88%
    01:00 +22°C° 0 mm 1 m/s 709 mmHg 88%
    02:00 +22°C° 0 mm 1 m/s 709 mmHg 88%
    03:00 +22°C° 0 mm 1 m/s 709 mmHg 88%
    04:00 +20°C° 0 mm 0 m/s 709 mmHg 88%
    05:00 +23°C° 0 mm 1 m/s 709 mmHg 86%
    06:00 +24°C° 0 mm 1 m/s 710 mmHg 84%
    07:00 +25°C° 0 mm 1 m/s 710 mmHg 81%
    08:00 +26°C° 0.1 mm 1 m/s 711 mmHg 76%
    09:00 +27°C° 0.1 mm 2 m/s 711 mmHg 70%
    10:00 +29°C° 0.1 mm 2 m/s 711 mmHg 65%
    11:00 +29°C° 0.5 mm 2 m/s 711 mmHg 68%
    12:00 +29°C° 0.5 mm 2 m/s 710 mmHg 70%
    13:00 +29°C° 0.5 mm 2 m/s 709 mmHg 72%
    14:00 +28°C° 0.5 mm 2 m/s 709 mmHg 75%
    15:00 +27°C° 0.5 mm 2 m/s 709 mmHg 78%
    16:00 +27°C° 0.5 mm 2 m/s 708 mmHg 81%
    17:00 +26°C° 0.1 mm 1 m/s 709 mmHg 83%
    18:00 +25°C° 0.1 mm 1 m/s 709 mmHg 85%
    19:00 +25°C° 0.1 mm 1 m/s 709 mmHg 87%
    20:00 +24°C° 0 mm 1 m/s 709 mmHg 86%
    21:00 +24°C° 0 mm 1 m/s 710 mmHg 86%
    22:00 +24°C° 0 mm 1 m/s 710 mmHg 86%
    23:00 +23°C° 0 mm 1 m/s 710 mmHg 85%

    25 Octobre, Vendredi

    Heure Température Précipitation Vent Pression Humidité
    00:00 +23°C° 0 mm 1 m/s 709 mmHg 85%
    01:00 +23°C° 0 mm 1 m/s 709 mmHg 84%
    02:00 +23°C° 0 mm 1 m/s 709 mmHg 84%
    03:00 +21°C° 0 mm 0 m/s 709 mmHg 84%
    04:00 +21°C° 0 mm 0 m/s 709 mmHg 84%
    05:00 +22°C° 0 mm 0 m/s 710 mmHg 82%
    06:00 +23°C° 0 mm 0 m/s 710 mmHg 79%
    07:00 +24°C° 0 mm 0 m/s 711 mmHg 77%
    08:00 +27°C° 0 mm 1 m/s 711 mmHg 73%
    09:00 +28°C° 0 mm 1 m/s 712 mmHg 68%
    10:00 +30°C° 0 mm 2 m/s 712 mmHg 64%
    11:00 +30°C° 0.3 mm 2 m/s 711 mmHg 64%
    12:00 +30°C° 0.3 mm 2 m/s 710 mmHg 64%
    13:00 +30°C° 0.3 mm 2 m/s 710 mmHg 65%
    14:00 +29°C° 0.7 mm 2 m/s 709 mmHg 68%
    15:00 +29°C° 0.7 mm 1 m/s 709 mmHg 72%
    16:00 +28°C° 0.7 mm 1 m/s 709 mmHg 76%
    17:00 +27°C° 0.3 mm 1 m/s 709 mmHg 79%
    18:00 +26°C° 0.3 mm 1 m/s 709 mmHg 83%
    19:00 +25°C° 0.3 mm 1 m/s 710 mmHg 87%
    20:00 +24°C° 0.1 mm 1 m/s 710 mmHg 87%
    21:00 +24°C° 0.1 mm 1 m/s 710 mmHg 87%
    22:00 +24°C° 0.1 mm 1 m/s 710 mmHg 87%
    23:00 +23°C° 0 mm 1 m/s 710 mmHg 87%

    26 Octobre, Samedi

    Heure Température Précipitation Vent Pression Humidité
    00:00 +23°C° 0 mm 1 m/s 710 mmHg 87%
    01:00 +23°C° 0 mm 1 m/s 709 mmHg 87%
    02:00 +23°C° 0 mm 1 m/s 709 mmHg 86%
    03:00 +23°C° 0 mm 1 m/s 709 mmHg 86%
    04:00 +22°C° 0 mm 1 m/s 709 mmHg 85%
    05:00 +23°C° 0 mm 1 m/s 710 mmHg 83%
    06:00 +22°C° 0 mm 0 m/s 710 mmHg 81%
    07:00 +23°C° 0 mm 0 m/s 711 mmHg 78%
    08:00 +27°C° 0 mm 1 m/s 711 mmHg 72%
    09:00 +28°C° 0 mm 1 m/s 712 mmHg 66%
    10:00 +30°C° 0 mm 1 m/s 712 mmHg 60%
    11:00 +30°C° 0.1 mm 1 m/s 711 mmHg 60%
    12:00 +30°C° 0.1 mm 2 m/s 710 mmHg 60%
    13:00 +31°C° 0.1 mm 2 m/s 710 mmHg 60%
    14:00 +30°C° 0.4 mm 1 m/s 709 mmHg 66%
    15:00 +29°C° 0.4 mm 1 m/s 709 mmHg 72%
    16:00 +28°C° 0.4 mm 1 m/s 709 mmHg 78%
    17:00 +27°C° 0.3 mm 1 m/s 709 mmHg 81%
    18:00 +26°C° 0.3 mm 1 m/s 709 mmHg 85%
    19:00 +25°C° 0.3 mm 1 m/s 710 mmHg 88%
    20:00 +24°C° 0.4 mm 1 m/s 710 mmHg 89%
    21:00 +24°C° 0.4 mm 1 m/s 710 mmHg 89%
    22:00 +24°C° 0.4 mm 1 m/s 710 mmHg 90%
    23:00 +23°C° 0.1 mm 1 m/s 710 mmHg 89%

    27 Octobre, Dimanche

    Heure Température Précipitation Vent Pression Humidité
    00:00 +23°C° 0.1 mm 1 m/s 710 mmHg 89%
    01:00 +21°C° 0.1 mm 0 m/s 709 mmHg 89%
    02:00 +23°C° 0 mm 1 m/s 709 mmHg 89%
    03:00 +23°C° 0 mm 1 m/s 709 mmHg 88%
    04:00 +22°C° 0 mm 1 m/s 709 mmHg 88%
    05:00 +23°C° 0 mm 1 m/s 710 mmHg 86%
    06:00 +22°C° 0 mm 0 m/s 711 mmHg 85%
    07:00 +23°C° 0 mm 0 m/s 711 mmHg 83%
    08:00 +27°C° 0 mm 1 m/s 711 mmHg 75%
    09:00 +28°C° 0 mm 1 m/s 712 mmHg 68%
    10:00 +30°C° 0 mm 1 m/s 712 mmHg 61%
    11:00 +30°C° 0 mm 1 m/s 711 mmHg 60%
    12:00 +31°C° 0 mm 2 m/s 710 mmHg 59%
    13:00 +31°C° 0 mm 2 m/s 710 mmHg 58%
    14:00 +30°C° 0.2 mm 2 m/s 709 mmHg 63%
    15:00 +30°C° 0.2 mm 2 m/s 709 mmHg 69%
    16:00 +29°C° 0.2 mm 1 m/s 709 mmHg 74%
    17:00 +28°C° 0.2 mm 1 m/s 709 mmHg 79%
    18:00 +26°C° 0.2 mm 1 m/s 709 mmHg 84%
    19:00 +25°C° 0.2 mm 1 m/s 710 mmHg 89%
    20:00 +24°C° 0 mm 1 m/s 710 mmHg 89%
    21:00 +24°C° 0 mm 1 m/s 710 mmHg 90%
    22:00 +24°C° 0 mm 1 m/s 710 mmHg 90%
    23:00 +24°C° 0 mm 1 m/s 710 mmHg 91%
    Voir plus